SL-8 DEB, 2647

Orbit data source: Space-Track

SL-8 DEB, 2647 is space debris in LEO originally from a launch on Sat, 18 Sep 1965 UTC launched from the Tyuratam Missile And Space Complex (TTMTR). Debris objects in space refer to the collection of defunct objects orbiting the Earth. Examples of debris include non-operational satellites, rocket bodies, and fragments generated from explosions, collisions, or faulty payload assembly.

Loading next visibility...
SL-8 DEB details
Identifier
2647, 1965-073L
Orbit
LEO
Last TLE update11 hours ago
Origin
Flag of CISTsUKOS (CIS)
ManufacturerUnknown
MissionSpacecraft
Bus & MotorUnknown
MassUnknown
Launch date (UTC)
1965-09-18 (59 years ago)
Launch vehicleUnknown
Launch site
Tyuratam Missile And Space Complex (TTMTR)
Object type
Payload
Rocket body
Debris
Shape & HBRUnknown
Radar Cross SectionSmall (<0.1 m²)

Expand to show TLE details & history

TLE from 11 hours ago
0 SL-8 DEB
1 02647U 65073L   25024.47746828  .00000026  00000-0  80628-3 0  9994
2 02647  56.0653 105.8797 0189866 109.0013 358.1833 12.43602248 53343
Epoch: 2025-01-24T11:27Z
Definitive object data (Epoch: 2025-01-24T11:27:33.259Z)
Latitude52.59192°
Longitude-71.14128°
Altitude1,348.853 km
Speed7.257 km/s
True Right ascension14h 59m 08s
True Declination52° 26' 19"
Sunlit
Object was in daylight at TLE epoch
Visualization TLE readout
Latitude50.80323°
Longitude-136.12963°
Altitude1,383.513 km
Speed7.225 km/s
Apparent Right ascension11h 23m 25s
Apparent Declination11° 16' 57"
Sunlit
Object is in full shadow
Visualization observer readout
Local Sidereal Time00:07:46
Azimuth13.806° NNE
Elevation-37.776°
Doppler factor1
Orbital elements
Apogee altitude1,640.604 km
Perigee altitude1,341.781 km
Semi-major axis7,869.329 km
Eccentricity0.0189866
Inclination56.0653°
RAAN105.8797°
Arg. of periapsis109.0013°
True anomaly358.11265°
Mean anomaly358.1833°
Eccentric anomaly358.14815°
Mean motion3.10911 °/min
BSTAR0.00080628
Orbital period115.79 mins
Loading maneuver chart data...
Loading historical data...
Loading historical data...
Loading historical data...
Loading historical data...
Loading historical data...
Loading historical data...
Loading historical data...

SL-8 DEB Visibility forecast

Observer location: undefined°, undefined

Span
Click to sort rows by Start time (UTC) header in descending order
Start Az.
Max El. time (UTC)
Max El. Az.
Max El.
End time (UTC)
End Az.
14 mins2025-01-25 06:17:12.944Z179.707° S2025-01-25 06:24:12.944Z121.533° SE29.853°2025-01-25 06:31:12.944Z61.7° ENE
15 mins2025-01-25 08:17:12.944Z238.409° WSW2025-01-25 08:25:12.944Z338.296° N42.596°2025-01-25 08:32:12.944Z41.555° NE
12 mins2025-01-25 10:21:12.944Z291.363° WNW2025-01-25 10:27:12.944Z344.867° N26.37°2025-01-25 10:33:12.944Z38.595° NE
12 mins2025-01-25 12:25:12.944Z322.67° NNW2025-01-25 12:31:12.944Z18.756° NNE25.34°2025-01-25 12:37:12.944Z68.673° E
15 mins2025-01-25 14:26:12.944Z319.83° NNW2025-01-25 14:33:12.944Z37.131° NE41.554°2025-01-25 14:41:12.944Z118.783° SE
13 mins2025-01-25 16:28:12.944Z294.386° NW2025-01-25 16:34:12.944Z231.682° WSW31.12°2025-01-25 16:41:12.944Z174.718° S
|